Regional Weather Roundup
Issued by NWS

Home | Current Version | Previous Version | Text Only | Print | Product List | Glossary On
Versions: 1 2 3 4 5 6 7 8 9 10 11 12 13 14 15 16 17 18 19 20 21 22 23 24 25 26 27 28 29 30 31 32 33 34 35 36 37 38 39 40 41 42 43 44 45 46 47 48 49 50
811
ASUS44 KJAN 192203
RWRMS

MISSISSIPPI HOURLY WEATHER ROUNDUP
NATIONAL WEATHER SERVICE JACKSON MS
500 PM CDT FRI SEP 19 2014

NOTE: "FAIR: INDICATES FEW OR NO CLOUDS BELOW 12,000 FEET WITH NO
SIGNIFICANT WEATHER AND/OR OBSTRUCTIONS TO VISIBILITY.

MSZ001>002-007>008-010>013-018>021-025>028-034>036-192300-
NORTHWEST MISSISSIPPI

CITY           SKY/WX    TMP DP  RH WIND       PRES   REMARKS
CLARKSDALE     FAIR      86  66  51 CALM      29.98S
CLEVELAND      FAIR      87  69  53 NE3       29.95S HX  91
GREENWOOD      MOSUNNY   90  65  43 NE6       29.95F HX  92
GREENVILLE     MOSUNNY   89  62  40 CALM      29.94F
GRENADA        FAIR      86  64  48 CALM      29.97S
OLIVE BRANCH   PTSUNNY   84  68  58 SW7       30.00R
OXFORD         FAIR      82  64  54 S5        30.00F
TUNICA         PTCLDY    82  66  57 E3        29.99S
$$

MSZ003>006-009-014>017-022>024-029>033-037>039-192300-
NORTHEAST MISSISSIPPI

CITY           SKY/WX    TMP DP  RH WIND       PRES   REMARKS
COLUMBUS AFB   SUNNY     87  65  47 N7        29.96F
CORINTH        FAIR      86  63  45 VRB6      29.99S
GOLDN TRIANGLE MOSUNNY   70  63  78 NE3       29.97S
STARKVILLE     FAIR      88  61  40 E3        29.96S
TUPELO         MOSUNNY   88  62  41 W5        29.97F
$$

MSZ040-058-192300-
CENTRAL MISSISSIPPI

CITY           SKY/WX    TMP DP  RH WIND       PRES   REMARKS
JACKSON INTL   MOSUNNY   89  67  47 E7        29.94F HX  92
JACKSON HAWKNS SUNNY     90  65  43 CALM      29.95S HX  92
MERIDIAN KEY   SUNNY     89  60  37 S3        29.94F
MERIDIAN NAS   MOSUNNY   89  60  37 E7        29.95S
RAYMOND        FAIR      84  77  79 E3        29.94F HX  94
VICKSBURG      SUNNY     89  65  44 NE6       29.93F HX  91
$$

MSZ059>079-192300-
SOUTH MISSISSIPPI

CITY           SKY/WX    TMP DP  RH WIND       PRES   REMARKS
BROOKHAVEN     FAIR      84  70  61 CALM      29.96S
COLUMBIA       FAIR      88  68  51 E8        29.92S HX  91
HATTIESBURG    MOSUNNY   86  69  56 SE16G23   29.94S HX  90
MCCOMB         MOSUNNY   83  70  64 S7        29.94S
NATCHEZ        SUNNY     86  70  58 NE5       29.93F HX  90
PINE BELT      SUNNY    N/A N/A N/A SE5       29.96R
$$

MSZ080>082-192300-
COASTAL MISSISSIPPI

CITY           SKY/WX    TMP DP  RH WIND       PRES   REMARKS
BAY ST LOUIS   MOSUNNY   84  64  51 E8        29.93
BILOXI         SUNNY     84  70  61 SE12      29.93S
PASCAGOULA     SUNNY     84  70  62 S8        29.94R
GULFPORT       SUNNY     83  71  67 SE10      29.93S
$$



USA.gov is the U.S. government's official web portal to all federal, state and local government web resources and services.